#timestamp,LO_Frequency,Hit 
1500616815.5,286047037.3,N
1500616835.3,286047038.8,N
1500616855.1,286047040.6,N
1500616875.9,286047042.9,N
1500616895.7,286047045.3,N
1500616915.5,286047042.6,N
1500616935.4,286047038.5,N
1500616955.2,286047038.0,N
1500616975.0,286047035.0,N
1500616975.9,286047035.0,N
1500616995.8,286047035.9,N
1500617015.6,286047033.9,N
1500617035.4,286047034.8,N
1500617055.3,286047031.8,N
1500617075.1,286047033.7,N
1500617076.0,286047033.7,N
1500617095.8,286047034.4,N
1500617115.7,286047031.8,N
1500617135.5,286047033.8,N
1500617155.3,286047033.3,N
1500617175.2,286047036.4,N
1500617195.9,286047033.4,N
1500617215.7,286047033.4,N
1500617235.6,286047035.7,N
1500617255.4,286047035.6,N
1500617275.2,286047036.8,N
1500617295.1,286047038.7,N
1500617296.0,286047038.7,N
1500617315.8,286047039.3,N
1500617335.6,286047036.8,N
1500617355.5,286047035.5,N
1500617375.3,286047037.8,N
1500617395.1,286047037.7,N
1500617415.9,286047037.7,N
1500617435.7,286047038.9,N
1500617455.5,286047039.4,N
1500617475.3,286047039.0,N
1500617495.2,286047038.2,N
1500617515.0,286047038.2,N
1500617515.9,286047038.2,N
1500617535.7,286047041.5,N
1500617555.6,286047042.8,N
1500617575.4,286047045.1,N
1500617595.2,286047044.8,N
1500617615.1,286047047.2,N
1500617616.0,286047047.2,N
1500617635.8,286047046.5,N
1500617655.6,286047047.2,N
1500617675.5,286047048.1,N
1500617695.3,286047045.0,N
1500617715.1,286047045.9,N
1500617735.9,286047043.0,N
1500617755.7,286047047.1,N
1500617775.5,286047045.2,N
1500617795.4,286047046.3,N
1500617815.2,286047049.0,N
1500617835.0,286047046.1,N
1500617835.9,286047046.1,N
1500617855.8,286047046.3,N
1500617875.6,286047048.5,N
1500617895.4,286047049.1,N
1500617915.3,286047044.5,N
1500617935.1,286047043.7,N
1500617936.0,286047043.7,N
1500617955.8,286047045.2,N
1500617975.7,286047045.4,N
1500617995.5,286047044.6,N
1500618015.3,286047046.2,N
1500618035.2,286047047.2,N
1500618055.9,286047047.8,N
1500618075.7,286047048.5,N
1500618095.6,286047047.2,N
1500618115.4,286047045.0,N
1500618135.2,286047043.5,N
1500618155.1,286047045.3,N
1500618156.0,286047045.3,N
1500618175.8,286047047.6,N
1500618195.6,286047045.6,N
1500618215.5,286047046.0,N
1500618235.3,286047045.7,N
1500618255.1,286047046.0,N
1500618275.9,286047047.4,N
1500618295.7,286047047.3,N
1500618315.5,286047045.5,N
1500618335.3,286047045.8,N
1500618355.2,286047045.3,N
1500618375.0,286047046.5,N
1500618375.9,286047046.5,N
1500618395.8,286047046.4,N
1500618415.6,286047046.4,N
1500618435.4,286047048.8,N
1500618455.2,286047047.9,N
1500618475.1,286047049.8,N
1500618476.0,286047049.8,N
1500618495.8,286047050.2,N
1500618515.6,286047052.8,N
1500618535.5,286047054.4,N
1500618555.3,286047054.1,N
1500618575.1,286047053.9,N
1500618595.9,286047053.4,N
1500618615.7,286047053.4,N
1500618635.5,286047053.3,N
1500618655.4,286047053.0,N
1500618675.2,286047053.4,N
1500618695.0,286047052.7,N
1500618695.9,286047052.7,N
1500618715.8,286047053.5,N
1500618735.6,286047055.3,N
1500618755.4,286047052.4,N
1500618775.3,286047053.9,N
1500618795.1,286047047.7,N
1500618796.0,286047047.7,N
1500618815.8,286047050.3,N
1500618835.7,286047049.4,N
1500618855.5,286047048.3,N
1500618875.3,286047046.4,N
1500618895.2,286047044.8,N
1500618915.9,286047047.5,N
1500618935.7,286047043.0,N
1500618955.6,286047046.0,N
1500618975.4,286047045.5,N
1500618995.2,286047043.3,N
1500619015.1,286047045.2,N
1500619016.0,286047045.2,N
1500619035.8,286047049.0,N
1500619055.6,286047048.6,N
1500619075.4,286047048.3,N
1500619095.3,286047048.2,N
1500619115.1,286047048.9,N
1500619135.8,286047049.0,N
1500619155.7,286047048.5,N
1500619175.5,286047049.0,N
1500619195.3,286047047.9,N
1500619215.2,286047050.6,N
1500619235.0,286047049.0,N
1500619235.9,286047049.0,N
1500619255.7,286047046.4,N
1500619275.6,286047047.4,N
1500619295.4,286047046.7,N
1500619315.2,286047048.5,N
1500619335.1,286047046.4,N
1500619336.0,286047046.4,N
1500619355.8,286047044.8,N
1500619375.6,286047042.9,N
1500619395.5,286047045.9,N
1500619415.3,286047044.9,N
1500619435.1,286047045.8,N
1500619455.9,286047045.4,N
1500619475.7,286047044.8,N
1500619495.5,286047045.6,N
1500619515.4,286047045.5,N
1500619535.2,286047047.2,N
1500619555.0,286047045.5,N
1500619555.9,286047045.5,N
1500619575.8,286047045.6,N
1500619595.6,286047043.6,N
1500619615.4,286047042.4,N
1500619635.2,286047038.8,N
1500619655.1,286047040.5,N
1500619656.0,286047040.5,N
1500619675.8,286047042.8,N
1500619695.6,286047042.6,N
1500619715.5,286047041.9,N
1500619735.3,286047044.1,N
1500619755.1,286047043.5,N
1500619775.9,286047039.9,N
1500619795.7,286047038.6,N
1500619815.5,286047041.0,N
1500619835.4,286047038.1,N
1500619855.2,286047041.0,N
1500619875.0,286047039.7,N
1500619875.9,286047039.7,N
1500619895.8,286047039.7,N
1500619915.6,286047042.2,N
1500619935.4,286047041.6,N
1500619955.3,286047041.9,N
1500619975.1,286047043.9,N
1500619976.0,286047043.9,N
1500619995.8,286047044.4,N
1500620015.7,286047044.0,N
1500620035.5,286047043.8,N
1500620055.3,286047040.6,N
1500620075.2,286047041.1,N
1500620095.9,286047039.5,N
1500620115.7,286047036.5,N
1500620135.6,286047037.0,N
1500620155.4,286047039.6,N
1500620175.2,286047037.6,N
1500620195.1,286047036.7,N
1500620196.0,286047036.7,N
1500620215.8,286047036.0,N
1500620235.6,286047034.5,N
1500620255.4,286047033.7,N
1500620275.3,286047037.2,N
1500620295.1,286047035.2,N
1500620315.8,286047034.0,N
1500620335.7,286047034.1,N
1500620355.5,286047035.2,N
1500620375.3,286047035.7,N
1500620395.2,286047036.1,N
